Карточка аэропорта UWGG

Внимание!
Информация на этой странице в стадии наполнения.
Если вы не увидели какой-то информации, или заметили неточность - пожалуйста сообщите нам!
Спасибо!
Команда RU-STAFF
Название аэропортаСтригино
Название аэропорта (англ.)Strigino
Превышение256 ft. (78 m.)
Координаты56°13.8', 43°47.202'
Высота перехода5000 ft
Эшелон переходаQNH>=1013hPa:FL060; QNH<1013hPa:FL070; QNH<977hPa:FL080
Коды ответчика2120-2147
Зона ОрВДМосква РПИ (UUWV)
Данные METARUWGG 071830Z 17004MPS CAVOK M12/M14 Q1034 R18L/410050 NOSIG
Проноз погоды (TAF)UWGG 071651Z 0718/0818 15003G09MPS 9999 SCT020 TXM08/0815Z TNM15/0803Z TEMPO 0721/0812 17008G14MPS
NOTAMshow/hide NOTAM
AWOS   TABLE

Информация о ВПП

ВПП Длина ВПП (м.) Покрытие Курс ВПП Частота ILS
18R2806Асфальтобетон179109.9
36L2806Асфальтобетон359109.5
18L3000Цементобетон179108.1
36R3000Цементобетон359110.5

Диспетчерские позиции

Позывной Наименование органа УВД Частота
UWGG_APPНижний-Подход124.700
UWGG_GNDНижний-Руление121.800
UWGG_R_APPНижний-Круг120.800
UWGG_TWRНижний-Вышка120.400



Спутниковое изображение